#timestamp,LO_Frequency,Hit,StdDev 
1610586015.2,286046998.6,N
1610586035.1,286046990.1,N
1610586036.0,286046990.1,N
1610586055.8,286046996.4,N
1610586075.6,286046997.1,N
1610586095.5,286046995.3,N
1610586115.3,286046998.4,N
1610586135.1,286047000.0,N
1610586155.9,286047002.2,N
1610586175.7,286047003.4,N
1610586195.6,286047005.2,N
1610586215.4,286047003.5,N
1610586235.2,286047000.7,N
1610586255.1,286047001.9,N
1610586256.0,286047001.9,N
1610586275.8,286047003.5,N
1610586295.7,286047008.1,N
1610586315.5,286047008.3,N
1610586335.3,286047008.4,N
1610586355.2,286047010.7,N
1610586375.9,286047004.6,N
1610586395.7,286047003.4,N
1610586415.6,286047004.0,N
1610586435.4,286047001.4,N
1610586455.3,286047003.6,N
1610586475.1,286047007.2,N
1610586476.0,286047007.2,N
1610586495.8,286047007.6,N
1610586515.7,286047007.1,N
1610586535.5,286047005.8,N
1610586555.3,286047003.1,N
1610586575.2,286047003.7,N
1610586595.0,286047002.3,N
1610586595.9,286047002.3,N
1610586615.8,286047002.3,N
1610586635.6,286047003.4,N
1610586655.4,286047006.0,N
1610586675.3,286047005.8,N
1610586695.1,286047005.3,N
1610586715.9,286047005.0,N
1610586735.7,286047005.1,N
1610586755.5,286047004.8,N
1610586775.4,286047012.1,Y
1610586795.2,286047001.5,P
1610586815.1,286046998.7,N
1610586816.0,286046998.7,N
1610586835.8,286046990.1,Y
1610586855.6,286046984.1,P
1610586875.5,286046978.9,N
1610586895.3,286046978.5,N
1610586915.1,286046978.4,N
1610586935.9,286046979.9,N
1610586955.7,286046983.1,N
1610586975.6,286046986.5,N
1610586995.4,286046988.5,N
1610587015.2,286046989.9,N
1610587035.1,286046984.1,N
1610587036.0,286046984.1,N
1610587055.8,286046989.9,N
1610587075.7,286046988.9,N
1610587095.5,286046991.8,N
1610587115.3,286046997.8,N
1610587135.2,286046996.9,N
1610587155.0,286046994.2,N
1610587155.9,286046994.2,N
1610587175.7,286046994.7,N
1610587195.6,286046993.3,N
1610587215.4,286046997.1,N
1610587235.3,286046991.7,N
1610587255.1,286046988.8,N
1610587256.0,286046988.8,N
1610587275.8,286046992.0,N
1610587295.7,286046994.4,N
1610587315.5,286046996.3,N
1610587335.4,286046994.5,N
1610587355.2,286046990.7,N
1610587375.0,286046991.1,N
1610587375.9,286046991.1,N
1610587395.8,286046993.1,N
1610587415.6,286046992.7,N
1610587435.4,286046992.4,N
1610587455.3,286046992.1,N
1610587475.1,286046992.5,N
1610587495.9,286046994.2,N
1610587515.7,286046994.0,N
1610587535.5,286046996.0,N
1610587555.4,286046998.8,N
1610587575.2,286046997.4,N
1610587595.0,286046995.0,N
1610587596.0,286046995.0,N
1610587615.8,286046996.0,N
1610587635.6,286046992.3,Y
1610587685.5,286047001.4,E
1610587695.4,286047001.7,N
1610587715.2,286046998.7,P
1610587735.1,286047004.4,N
1610587736.0,286047004.4,N
1610587755.8,286047003.3,N
1610587775.7,286047005.7,N
1610587795.5,286047005.3,N
1610587815.3,286047004.7,N
1610587835.2,286047006.5,N
1610587855.0,286047010.2,Y
1610587855.9,286047010.2,P
1610587875.8,286047006.3,N
1610587895.6,286047009.2,P
1610587915.4,286047007.3,N
1610587935.3,286047000.3,N
1610587955.1,286046999.9,N
1610587975.9,286047000.3,N
1610587995.7,286047000.9,N
1610588015.5,286046998.7,N
1610588035.4,286046994.5,N
1610588055.2,286046995.6,N
1610588075.0,286047001.2,N
1610588075.9,286047001.2,N
1610588095.8,286046998.4,N
1610588115.6,286047000.1,N
1610588135.5,286046999.4,N
1610588155.3,286046998.0,N
1610588175.1,286046997.2,N
1610588195.9,286047002.8,N
1610588215.7,286047003.0,N
1610588235.5,286047002.5,N
1610588255.4,286046997.1,N
1610588275.2,286046998.5,N
1610588295.1,286047000.2,N
1610588296.0,286047000.2,N
1610588315.8,286046999.3,N
1610588335.6,286046998.9,N
1610588355.5,286046996.8,N
1610588375.3,286046996.9,N
1610588395.1,286046995.8,N
1610588415.9,286046998.9,N
1610588435.7,286046996.6,N
1610588455.6,286046996.0,N
1610588475.4,286046997.5,N
1610588495.2,286046998.0,N
1610588515.1,286046996.3,N
1610588516.0,286046996.3,N
1610588535.8,286046994.8,N
1610588555.7,286046994.1,N
1610588575.5,286046995.5,N
1610588595.3,286046998.2,N
1610588615.2,286046998.5,N
1610588635.0,286047000.7,N
1610588635.9,286047000.7,N
1610588655.8,286046999.6,N
1610588675.6,286046999.5,N
1610588695.4,286046998.6,N
1610588715.3,286046997.6,N
1610588735.1,286047001.0,N
1610588755.8,286046998.8,N
1610588775.7,286047001.2,N
1610588795.5,286047002.7,N
1610588815.4,286047004.3,N
1610588835.2,286047008.5,Y
1610588855.0,286047007.8,P
1610588855.9,286047007.8,N
1610588875.8,286047008.5,N
1610588895.6,286047010.4,N
1610588915.5,286047010.5,N
1610588935.3,286047006.9,N
1610588955.1,286047001.4,N
1610588975.9,286047001.5,N
1610588995.7,286047004.3,N
1610589015.5,286047003.6,N
1610589035.4,286047001.5,N
1610589055.2,286046998.2,N
1610589075.1,286047000.4,N
1610589076.0,286047000.4,N
1610589095.8,286047002.5,N
1610589115.6,286047003.6,N
1610589135.5,286047003.8,N
1610589155.3,286047000.0,N
1610589175.1,286046998.4,N
1610589195.9,286046995.7,N
1610589215.7,286046995.4,N
1610589235.6,286046997.6,N
1610589255.4,286046998.3,N
1610589275.2,286046998.5,N
1610589295.1,286046998.1,N
1610589296.0,286046998.1,N
1610589315.8,286046997.0,N
1610589335.7,286047006.4,N
1610589355.5,286047012.2,N
1610589375.3,286047011.2,N
1610589395.2,286047006.3,N
1610589415.0,286047018.4,Y
1610589415.9,286047018.4,P
1610589435.8,286047018.7,N
1610589455.6,286047014.8,N
1610589475.4,286047030.0,Y
1610589495.3,286047018.1,P
1610589515.1,286047022.8,P
1610589535.8,286047020.0,P
1610589555.7,286047012.5,Y
1610589575.5,286046991.2,P
1610589595.4,286046988.0,N
